Theta_e
298 292 288 292 294 296 296 294 293 297 300 298 298 299 302 304 304 305 306 308 313 313 316 316 320 332 337 347 351 350 347 349 348 345 343 344 345 346 347 349 349 352 351 352
294 291 296 298 298 295 295 294 294 298 300 298 299 299 303 303 304 305 306 308 311 313 312 315 317 322 327 335 339 346 346 348 344 344 344 347 345 344 347 347 347 346 347 348
294 296 299 297 296 295 295 294 295 295 298 300 297 297 299 301 303 304 306 308 310 313 314 314 316 321 324 327 334 337 343 345 346 343 345 348 346 346 342 343 342 344 344 346
296 299 296 296 296 298 294 300 298 297 295 291 296 289 297 300 301 303 305 305 308 309 309 313 314 317 322 323 329 335 341 342 343 344 344 345 341 340 343 344 347 348 351 351
295 296 295 295 297 299 296 299 298 297 295 294 294 292 295 298 299 302 304 307 311 311 310 310 311 315 316 321 330 337 340 343 345 345 347 345 345 346 347 344 343 342 342 343
298 301 300 299 300 300 300 297 294 293 294 289 294 292 293 297 299 302 306 310 310 311 312 312 312 313 317 323 328 337 342 344 346 346 347 348 340 336 337 335 334 334 336 337
296 297 300 301 298 300 297 294 289 287 287 287 292 290 294 298 304 305 306 308 309 311 312 313 312 311 316 322 328 335 341 339 343 343 341 339 336 336 334 331 329 331 331 331
291 289 296 300 298 297 297 296 290 283 284 288 291 289 295 304 307 306 306 308 311 312 313 314 315 315 315 320 329 335 337 336 339 338 336 335 335 330 333 332 330 331 331 332
292 292 301 303 304 302 296 293 296 290 289 289 292 294 299 304 304 305 306 307 308 310 314 316 317 317 319 323 328 331 330 328 330 330 330 331 331 331 330 333 335 334 334 331
297 291 299 302 304 303 300 300 293 294 285 284 289 290 293 300 302 303 305 306 307 309 311 314 317 320 321 324 325 326 327 326 326 328 329 330 332 333 334 335 334 334 333 331
301 296 296 300 297 296 299 297 297 296 294 288 286 290 300 302 304 303 305 306 307 307 308 311 313 315 319 321 322 324 324 324 325 327 329 330 330 332 333 333 334 333 332 331
300 298 293 295 299 301 299 297 298 293 291 293 291 291 305 305 306 307 306 309 310 311 311 312 312 314 315 316 318 320 321 322 323 324 326 328 330 331 331 331 331 331 329 329
300 295 289 290 295 298 296 297 297 297 296 292 290 292 304 305 306 308 308 309 310 311 313 314 314 312 313 315 316 316 317 317 318 320 321 322 322 322 325 327 328 327 326 325
300 294 292 289 290 295 292 294 295 294 291 291 292 294 299 301 302 305 309 310 308 309 312 312 313 311 312 312 312 313 313 314 314 315 316 317 318 319 319 320 320 320 320 320
298 291 292 292 293 293 292 293 293 292 293 289 292 291 295 298 299 301 303 305 306 307 309 310 309 308 309 310 310 309 309 309 310 310 310 312 313 314 314 314 315 316 317 316
296 291 291 288 290 290 289 291 292 292 292 292 292 292 299 301 302 302 302 304 304 305 304 306 306 305 305 306 306 307 307 308 309 309 308 309 310 310 311 312 312 313 313 314
293 291 287 283 288 288 285 289 290 291 293 292 290 296 300 299 300 299 300 302 302 301 301 302 303 304 305 304 305 305 305 306 305 305 305 305 306 305 306 307 307 308 308 309
292 291 289 285 286 279 289 295 296 294 297 298 297 297 296 296 298 299 300 300 300 300 301 302 303 303 303 304 304 303 303 303 302 303 303 303 303 303 304 304 304 305 305 306
296 292 286 283 282 287 290 295 295 293 293 299 298 300 300 301 301 300 300 300 298 300 301 301 302 302 302 302 301 301 301 301 301 300 301 301 301 300 301 301 301 302 301 302
292 294 289 285 280 279 291 297 300 300 288 297 297 297 297 299 293 296 299 299 299 300 299 300 300 300 300 300 300 299 299 299 298 299 299 299 300 299 299 299 299 299 300 300
287 288 285 285 283 288 294 298 301 286 291 299 299 298 296 292 294 297 299 299 298 299 299 299 299 299 299 299 298 297 297 296 298 298 298 298 298 298 297 297 298 298 298 298
288 286 285 285 282 281 298 298 292 298 301 301 301 299 297 298 298 299 299 298 297 297 298 298 297 297 298 297 296 295 294 296 296 296 295 295 296 296 296 295 296 296 294 292
287 292 288 289 291 297 300 300 303 303 300 301 301 300 298 296 296 296 296 297 297 297 296 297 295 294 295 295 294 293 294 294 294 294 294 295 294 292 291 291 290 290 292 292
294 297 293 292 295 297 300 302 303 302 301 301 298 297 296 294 295 295 295 295 294 294 294 294 293 292 292 293 293 293 293 293 293 292 292 292 291 290 291 291 291 290 290 290
294 294 291 292 295 298 299 299 298 299 298 297 296 295 294 295 294 294 293 292 292 292 292 293 291 290 291 291 291 292 292 292 289 288 288 289 289 289 290 290 290 290 291 291
294 292 291 290 295 295 295 294 296 295 294 294 294 294 295 294 293 293 292 292 291 290 291 290 290 289 289 290 290 290 289 288 287 286 287 287 288 288 288 288 289 291 291 291
Wind_Speed
6 5 11 12 11 9 11 11 15 21 12 11 12 14 14 9 9 10 12 14 13 12 14 6 6 9 8 11 13 11 17 15 10 8 10 9 9 8 6 6 9 10 9 11
6 9 12 11 9 11 11 12 17 17 7 8 7 13 9 6 3 5 11 11 16 13 10 10 8 9 11 13 13 11 10 12 14 11 9 4 9 4 7 7 8 10 10 9
8 2 17 12 10 10 12 15 15 15 12 9 9 10 2 1 4 1 4 9 11 12 14 9 11 12 9 14 14 13 13 16 13 10 9 5 6 3 5 6 7 9 10 10
10 11 10 10 10 12 13 14 19 16 7 8 1 6 5 4 2 4 2 1 10 12 9 11 10 13 13 12 6 12 13 13 13 15 12 15 10 10 7 7 7 6 8 9
6 9 13 10 12 11 7 5 8 10 10 6 7 6 3 3 2 3 4 6 7 9 8 11 13 13 11 9 9 8 11 12 12 16 14 11 8 6 7 7 11 9 7 6
6 2 5 3 4 8 4 5 2 2 4 8 8 7 6 6 2 3 3 9 10 10 11 9 9 8 11 11 10 10 11 11 12 12 10 11 11 10 9 10 8 7 6 6
6 10 5 8 12 6 4 5 5 6 7 8 4 6 7 2 2 5 10 12 12 11 10 7 8 9 7 8 9 10 13 13 13 12 11 12 13 11 12 12 9 10 7 7
11 7 7 6 14 9 8 6 7 7 6 5 3 6 2 2 2 3 4 6 8 10 10 10 9 6 6 4 6 8 11 11 12 12 13 13 14 10 7 9 9 7 7 8
6 5 2 2 2 7 6 7 1 4 2 5 2 3 4 1 1 5 8 8 10 11 11 10 8 6 1 7 10 11 12 12 12 13 12 11 10 10 9 10 9 8 8 7
3 5 2 2 3 6 4 7 4 3 7 10 5 3 5 4 4 3 6 8 9 9 10 11 11 8 7 8 10 12 11 12 10 10 9 9 9 8 7 7 7 7 7 8
5 2 2 3 4 3 3 4 3 1 2 6 9 5 2 2 5 6 4 5 6 8 9 9 8 8 7 7 8 8 8 8 6 5 5 5 5 6 6 7 8 8 8 9
3 1 4 2 5 3 2 1 1 4 5 1 4 4 4 2 5 5 5 3 4 5 7 8 7 7 7 7 7 7 7 6 6 5 4 3 4 5 6 7 8 8 10 10
5 4 2 1 0 2 1 3 4 5 1 7 7 2 3 2 1 0 2 1 5 3 7 9 7 5 5 6 6 6 6 6 6 4 2 1 3 4 6 7 7 7 8 9
3 3 4 2 4 2 4 5 3 2 2 5 8 11 5 7 8 7 8 5 7 8 9 8 5 4 2 4 6 6 8 8 7 6 5 5 5 5 6 7 9 9 9 11
1 2 2 2 1 1 4 6 7 9 9 9 11 13 13 15 16 17 14 11 10 10 8 6 2 5 1 6 8 7 9 9 9 8 7 6 7 7 7 8 9 10 10 11
2 3 0 2 2 3 8 10 11 13 13 15 16 19 17 18 17 14 14 13 11 5 1 5 7 7 6 8 7 7 8 8 7 7 7 7 7 8 8 9 10 10 12 12
3 4 2 2 4 7 9 9 10 8 8 9 11 9 11 11 7 6 6 2 7 8 7 7 7 7 7 8 7 8 8 7 8 8 8 9 10 11 12 12 13 13 14 14
4 4 2 2 4 4 5 6 3 5 4 4 3 3 6 7 7 7 8 9 9 7 6 6 6 7 7 7 7 8 9 10 10 11 12 12 13 14 15 15 16 16 15 16
3 4 4 3 4 8 3 1 0 2 2 3 5 3 1 3 7 3 8 8 7 7 6 6 6 6 6 7 8 10 10 11 11 12 13 14 14 15 16 17 17 16 17 17
5 2 3 4 3 3 3 4 2 5 5 1 3 4 5 6 6 3 5 6 6 5 4 5 6 7 7 8 9 11 13 13 14 14 14 15 15 16 16 17 18 17 16 17
4 3 8 6 4 5 2 3 3 4 4 1 2 3 5 3 3 5 7 6 5 4 5 7 8 9 10 10 11 13 14 14 14 14 15 15 15 16 16 16 15 15 16 16
6 5 4 4 4 6 3 2 4 4 2 4 5 4 5 8 8 8 7 7 7 9 11 11 12 12 12 12 11 14 14 14 14 15 15 15 15 12 12 16 15 15 13 14
3 3 2 4 1 3 1 4 4 2 4 4 5 5 5 7 7 9 9 10 10 12 12 12 12 15 13 12 12 15 14 14 14 14 14 14 15 13 13 13 13 12 11 12
2 4 3 4 3 2 1 2 1 2 4 3 4 5 5 7 8 10 9 10 12 13 14 14 15 15 16 14 13 14 14 13 14 15 15 14 14 13 13 10 9 10 10 10
1 1 2 6 6 4 3 3 5 3 4 4 4 5 7 8 10 11 12 12 12 14 13 13 13 15 17 15 15 14 13 14 14 13 12 12 10 12 12 11 10 9 11 10
4 5 4 2 1 2 5 2 4 3 4 6 7 10 8 9 12 13 13 12 13 15 15 14 14 14 15 15 14 15 13 11 12 12 9 9 9 9 9 9 11 13 19 22
Wind_Direction
169 177 200 188 201 232 245 264 281 284 276 295 246 261 269 286 236 239 237 237 238 228 234 291 239 206 198 211 208 193 177 178 185 179 176 207 204 175 202 200 200 209 202 210
142 232 212 215 218 225 239 262 275 285 291 225 271 271 261 259 197 230 249 237 227 230 264 253 241 205 181 214 215 196 182 188 185 182 189 195 175 202 202 198 195 189 211 211
192 223 208 200 214 211 227 238 261 263 310 263 287 257 271 161 302 202 244 281 256 252 237 229 267 239 235 192 210 210 200 179 180 190 167 144 172 156 195 186 189 195 204 219
221 225 218 200 241 227 245 234 241 263 264 271 286 298 295 335 257 287 60 219 268 265 253 254 244 246 232 237 219 203 200 183 178 171 182 185 191 188 199 179 185 166 181 192
194 191 197 214 229 186 251 188 225 253 238 239 205 253 270 299 306 318 359 345 321 303 247 243 242 246 253 245 220 200 200 194 184 184 190 184 180 166 150 143 142 149 151 156
228 201 194 209 224 215 262 243 126 146 198 232 232 234 237 240 226 283 309 315 317 322 319 295 279 262 219 198 192 188 189 200 197 185 174 163 146 137 146 138 137 149 154 157
226 240 230 229 259 229 202 222 230 212 205 248 149 204 257 232 292 300 317 326 332 329 328 322 284 258 235 206 187 179 180 179 173 166 143 144 143 152 150 151 159 164 163 173
218 225 205 192 215 224 204 223 242 248 239 237 168 222 190 279 354 23 5 348 357 358 352 342 336 310 274 229 177 182 168 155 154 144 141 144 148 155 150 163 162 169 179 185
183 224 164 152 152 198 165 215 22 165 86 253 247 234 236 160 99 31 26 22 19 10 12 12 3 358 102 149 141 138 130 124 131 129 135 138 144 154 154 160 168 172 172 169
99 242 241 91 158 70 250 132 180 205 231 247 197 245 251 192 178 62 46 41 30 29 28 27 33 54 81 99 112 119 131 131 140 147 144 145 148 147 148 160 175 179 179 188
87 339 140 225 36 12 175 193 68 12 281 262 264 246 170 184 188 139 84 49 29 32 29 28 34 38 51 100 121 131 142 138 118 93 95 110 129 151 168 186 192 196 198 203
66 105 243 188 7 308 302 72 286 237 213 256 314 255 27 18 147 154 132 83 51 33 34 33 24 18 23 29 35 47 45 58 61 71 88 117 153 177 197 214 217 212 218 218
140 195 181 90 341 179 215 98 106 105 132 220 254 242 76 83 93 215 232 49 357 0 354 354 356 7 22 25 25 38 47 52 45 61 86 243 269 283 278 280 280 267 262 256
113 159 281 274 71 82 166 164 129 108 208 276 247 278 272 292 288 282 270 279 323 299 290 297 325 338 328 66 49 41 53 44 34 20 4 341 326 308 296 289 285 280 273 269
51 210 335 44 59 261 229 233 247 246 250 248 278 274 281 283 288 296 294 282 288 293 286 291 258 86 333 80 72 54 46 41 23 18 15 5 351 343 326 309 300 292 283 276
11 133 112 248 348 293 267 265 261 258 260 263 271 277 274 280 287 289 281 277 270 281 35 77 91 97 72 60 45 39 30 22 12 3 354 347 337 321 307 298 296 294 293 290
83 139 130 249 357 323 265 255 249 259 253 266 266 321 322 312 333 1 2 359 112 105 87 71 59 56 49 40 26 23 8 354 350 338 326 316 308 302 302 298 293 287 283 281
132 132 135 289 340 239 55 305 235 232 217 203 235 347 36 48 60 66 59 67 68 57 46 52 34 24 32 29 21 353 346 338 330 320 315 310 307 301 298 295 290 288 284 280
207 156 152 207 236 306 174 80 270 260 216 319 306 291 337 19 344 59 31 35 36 21 16 23 27 23 4 357 347 333 322 315 309 307 304 303 301 297 293 288 287 286 285 282
163 232 211 160 235 262 111 159 231 198 258 109 349 342 330 310 263 117 5 10 358 1 40 14 356 329 324 332 328 317 312 309 304 307 306 302 297 293 290 290 289 288 282 281
154 188 212 213 235 275 208 241 291 237 49 345 326 354 2 352 9 329 334 344 355 3 343 332 322 318 320 321 319 308 307 303 309 305 301 296 294 293 289 286 283 284 284 283
171 183 175 190 217 236 120 211 260 50 306 312 286 316 316 305 316 324 328 329 332 327 324 323 316 314 316 316 313 304 300 308 305 300 295 293 292 289 291 292 289 287 287 280
195 229 168 223 271 74 335 302 323 338 319 327 319 344 319 310 317 321 317 320 323 318 317 315 313 310 309 312 310 301 305 308 302 297 295 295 300 297 287 285 284 283 280 277
182 176 227 232 111 322 358 183 244 310 301 325 350 331 328 314 313 307 308 313 313 315 315 317 315 312 311 315 308 303 305 305 304 303 305 305 297 296 289 279 276 275 274 273
347 237 230 267 292 306 65 33 359 10 38 13 9 351 327 316 313 312 308 310 313 313 309 307 306 303 305 309 307 308 311 316 307 298 293 292 291 291 292 283 277 272 268 263
218 233 238 276 40 293 358 22 23 22 19 2 341 328 319 309 307 310 302 310 313 315 312 308 305 303 304 305 307 314 309 298 298 297 296 294 292 287 284 286 289 262 256 264